Simultaneous Nadir Overpasses (SNOs) Predictions

Prediction of SNOs between AQUA and METOP-A Satellite Orbit:

Table of predicted SNOs for the next 14.0 days since TLE Epoch: 12/30/2016
Index Date (AQUA) Time (AQUA) Lat,Lon (AQUA) SZA (AQUA ) Date (METOP-A) Time (METOP-A) Lat,Lon (METOP-A) SZA (METOP-A ) Distance(km) Time Diff (sec)
1 12/30/2016 18:11:12 -73.79, 81.40 83.12 12/30/2016 18:10:02 -73.79, 81.47 83.10 2.15 70
2 12/30/2016 19:00:40 73.82,-111.03 96.92 12/30/2016 19:00:41 73.82,-111.12 96.93 2.92 1
3 12/30/2016 19:50:08 -73.94, 56.35 82.96 12/30/2016 19:51:21 -73.92, 56.44 82.99 3.12 73
4 01/02/2017 13:45:27 -73.76, 147.90 83.37 01/02/2017 13:44:26 -73.76, 147.79 83.36 3.55 61
5 01/02/2017 14:34:56 73.84, -44.65 96.72 01/02/2017 14:35:04 73.84, -44.69 96.72 1.24 8
6 01/02/2017 15:24:29 -74.22, 122.14 82.89 01/02/2017 15:25:39 -74.18, 123.48 82.97 40.87 70
7 01/05/2017 09:19:43 -73.79,-145.73 83.62 01/05/2017 09:18:49 -73.77,-145.78 83.63 2.83 54
8 01/05/2017 10:09:12 73.88, 21.71 96.47 01/05/2017 10:09:27 73.85, 21.75 96.44 3.31 15
9 01/05/2017 10:58:50 -74.51,-172.11 82.86 01/05/2017 10:59:56 -74.49,-169.33 82.98 82.62 66
10 01/08/2017 04:53:57 -73.78, -79.26 83.98 01/08/2017 04:53:11 -73.78, -79.35 83.97 2.77 46
11 01/08/2017 05:43:26 73.87, 88.18 96.12 01/08/2017 05:43:49 73.86, 88.18 96.11 0.96 23
12 01/11/2017 00:28:13 -73.83, -12.93 84.33 01/11/2017 00:27:33 -73.83, -12.81 84.32 3.58 40
13 01/11/2017 01:17:41 73.87, 154.63 95.71 01/11/2017 01:18:12 73.87, 154.60 95.71 0.95 31




NCC Satellite Simultaneous Nadir Overpasses (SNOs) Prediction Service
